Location: Sweet Grass
(48.9965°N, 111.9649°W)
Time: 03:36:57
(UTC+00:00)

Envisat - Pass Details

Date: 05 December 2022
Orbit: 763 x 765 km, 98.2° (Epoch: 28 January)

Event Time Altitude Azimuth Distance (km) Brightness Sun altitude
Rises 11:25:17 0° 17° (NNE) 3,246 6.5 -35.1°
Reaches altitude 10° 11:27:40 10° 22° (NNE) 2,314 5.7 -34.7°
Enters shadow 11:29:17 20° 29° (NNE) 1,710 5.0 -34.5°
